Location: Buckeye Ditch
(40.9104°N, 122.9517°W)
Time: 13:14:14
(UTC+00:00)

Explorer 7 - Pass Details

Date: 28 May 2025
Orbit: 445 x 571 km, 50.3° (Epoch: 22 June)

Event Time Altitude Azimuth Distance (km) Brightness Sun altitude
Rises 09:15:35 0° 280° (W) 2,464 - -25.7°
Reaches altitude 10° 09:18:02 10° 297° (WNW) 1,609 - -25.5°
Exits shadow 09:19:10 16° 311° (NW) 1,302 8.9 -25.5°
Maximum altitude 09:20:55 22° 349° (N) 1,088 8.9 -25.4°
Drops below altitude 10° 09:23:52 10° 42° (NE) 1,661 10.1 -25.2°
Sets 09:26:28 0° 58° (ENE) 2,569 11.0 -25.0°
